TimeAKDT,TemperatureF,Dew PointF,Humidity,Sea Level PressureIn,VisibilityMPH,Wind Direction,Wind SpeedMPH,Gust SpeedMPH,PrecipitationIn,Events,Conditions,WindDirDegrees,DateUTC
12:53 AM,54.0,52.0,93,29.86,10.0,East,8.1,-,N/A,,Overcast,80,2013-08-23 08:53:00
1:37 AM,53.1,52.0,96,29.85,10.0,Calm,Calm,-,N/A,,Overcast,0,2013-08-23 09:37:00
1:53 AM,54.0,52.0,93,29.85,10.0,ENE,5.8,-,N/A,,Overcast,60,2013-08-23 09:53:00
2:53 AM,54.0,52.0,93,29.84,10.0,East,5.8,-,N/A,,Overcast,80,2013-08-23 10:53:00
3:53 AM,53.1,51.1,93,29.83,10.0,ESE,4.6,-,N/A,,Overcast,120,2013-08-23 11:53:00
4:53 AM,53.1,51.1,93,29.82,10.0,East,5.8,-,N/A,,Overcast,100,2013-08-23 12:53:00
5:53 AM,53.1,51.1,93,29.81,10.0,East,10.4,-,N/A,,Overcast,80,2013-08-23 13:53:00
6:53 AM,53.1,52.0,96,29.80,10.0,East,8.1,-,N/A,,Overcast,90,2013-08-23 14:53:00
7:53 AM,54.0,52.0,93,29.79,10.0,ESE,8.1,-,N/A,,Overcast,110,2013-08-23 15:53:00
8:53 AM,55.0,52.0,89,29.79,10.0,East,4.6,-,N/A,,Overcast,100,2013-08-23 16:53:00
9:53 AM,55.0,52.0,89,29.78,10.0,East,6.9,-,N/A,,Overcast,100,2013-08-23 17:53:00
10:53 AM,55.9,52.0,87,29.77,10.0,East,10.4,-,N/A,,Overcast,100,2013-08-23 18:53:00
11:53 AM,57.9,53.1,84,29.76,10.0,ESE,6.9,-,N/A,,Overcast,110,2013-08-23 19:53:00
12:53 PM,57.9,52.0,81,29.76,10.0,ESE,3.5,-,N/A,,Overcast,120,2013-08-23 20:53:00
1:53 PM,59.0,53.1,81,29.75,10.0,ESE,4.6,-,N/A,,Overcast,120,2013-08-23 21:53:00
2:53 PM,57.9,52.0,81,29.73,10.0,ESE,3.5,-,N/A,,Overcast,120,2013-08-23 22:53:00
3:53 PM,57.0,52.0,83,29.72,10.0,East,6.9,-,N/A,,Overcast,90,2013-08-23 23:53:00
4:53 PM,57.0,52.0,83,29.70,10.0,East,11.5,-,0.00,,Overcast,100,2013-08-24 00:53:00
5:53 PM,57.0,52.0,83,29.68,10.0,East,8.1,-,N/A,,Overcast,90,2013-08-24 01:53:00
6:53 PM,55.9,53.1,90,29.67,10.0,East,8.1,-,N/A,,Overcast,100,2013-08-24 02:53:00
7:53 PM,55.9,53.1,90,29.66,10.0,ENE,5.8,-,N/A,,Overcast,60,2013-08-24 03:53:00
8:53 PM,55.0,52.0,89,29.65,10.0,East,6.9,-,N/A,,Overcast,90,2013-08-24 04:53:00
9:53 PM,54.0,52.0,93,29.65,10.0,East,6.9,-,N/A,,Overcast,100,2013-08-24 05:53:00
10:53 PM,54.0,52.0,93,29.64,10.0,East,8.1,-,N/A,,Overcast,100,2013-08-24 06:53:00
11:53 PM,54.0,51.1,90,29.63,10.0,East,9.2,-,N/A,,Overcast,80,2013-08-24 07:53:00